This is the latest recevied weather packets stored in our database for station/object N3MFL. If no packets are shown the sender has not sent any weather packets the latest 10 day(s).
| Time | Temp. | Humidity | Pressure | Rain* | Wind** | Luminosity | Snow |
|---|---|---|---|---|---|---|---|
| 1777749246 | 11.11° C | 78% | 1012.2 hPa | 0 mm | - | 140 W/m² | - |
| 1777748944 | 11.11° C | 76% | 1012.3 hPa | 0 mm | - | 149 W/m² | - |
| 1777748641 | 11.11° C | 74% | 1012.1 hPa | 0 mm | - | 102 W/m² | - |
| 1777748336 | 11.11° C | 74% | 1012.4 hPa | 0 mm | - | 84 W/m² | - |
| 1777748032 | 11.11° C | 74% | 1012.3 hPa | 0 mm | - | 103 W/m² | - |
| 1777747730 | 11.11° C | 74% | 1012.2 hPa | 0 mm | - | 98 W/m² | - |
| 1777747425 | 11.67° C | 76% | 1012.5 hPa | 0 mm | - | 71 W/m² | - |
| 1777747122 | 11.67° C | 77% | 1012.3 hPa | 0 mm | - | 115 W/m² | - |
| 1777746818 | 11.67° C | 78% | 1012.3 hPa | 0 mm | - | 152 W/m² | - |
| 1777746513 | 12.22° C | 77% | 1012.4 hPa | 0 mm | - | 177 W/m² | - |
| 1777746208 | 11.67° C | 76% | 1012.3 hPa | 0 mm | - | 187 W/m² | - |
| 1777745905 | 11.67° C | 76% | 1012.3 hPa | 0 mm | - | 221 W/m² | - |
| 1777745604 | 11.67° C | 77% | 1012.5 hPa | 0 mm | - | 148 W/m² | - |
| 1777745302 | 11.67° C | 74% | 1012.3 hPa | 0 mm | - | 123 W/m² | - |
| 1777744999 | 11.11° C | 78% | 1012.3 hPa | 0 mm | - | 118 W/m² | - |
| 1777744694 | 11.11° C | 79% | 1012.4 hPa | 0 mm | - | 91 W/m² | - |
| 1777744389 | 11.11° C | 81% | 1012.4 hPa | 0 mm | - | 71 W/m² | - |
| 1777744086 | 11.11° C | 81% | 1012.5 hPa | 0 mm | - | 66 W/m² | - |
| 1777743783 | 11.11° C | 82% | 1012.7 hPa | 0 mm | - | 81 W/m² | - |
| 1777743480 | 10.56° C | 84% | 1012.6 hPa | 0 mm | - | 91 W/m² | - |
| 1777743177 | 10.56° C | 84% | 1012.5 hPa | 0 mm | - | 77 W/m² | - |
| 1777742875 | 10.56° C | 83% | 1012.8 hPa | 0 mm | - | 70 W/m² | - |
| 1777742571 | 11.11° C | 82% | 1012.9 hPa | 0 mm | - | 71 W/m² | - |
| 1777742267 | 11.11° C | 81% | 1012.5 hPa | 0 mm | - | 86 W/m² | - |
| 1777741964 | 11.11° C | 80% | 1012.7 hPa | 0 mm | - | 121 W/m² | - |
* Rain latest hour (hover to see other rain measurements)
** Current wind speed in m/s (hover to see current wind gust speed)